Date String (YYYY-MM-DD hh:mm:ss) UTC,Instrument flags,Ambient pressure (hPa),Sample flow (lpm),Bypass flow (lpm),Sample temperature (°C),Ambient temperature (°C),ASC tube jacket temperature (°C),LED temperature (°C),Box temperature (°C),Sample RH (%),Span deviation,Mass concentration (μg/m³),Mass concentration (μg/m³),Mass concentration (μg/m³)
DateTimeUTC,F1_M11,P_M11,Q1_M11,Q2_M11,T1_M11,T2_M11,T3_M11,T4_M11,T5_M11,U1_M11,ZSPAN_M11,X0_M11,X2_M11,X1_M11
2022-03-01 01:00:00,,0827.7,5.00,0.00,28.8,27.9,00.0,38.0,30.5,05.1,0000.0,0001.07,0000.66,0000.47
2022-03-01 01:01:00,,0827.7,5.01,0.00,28.8,27.9,00.0,38.0,30.4,05.2,0000.0,0001.11,0000.68,0000.47
2022-03-01 01:02:00,,0827.7,5.00,0.00,28.8,27.8,00.0,38.0,30.4,05.3,0000.0,0001.13,0000.69,0000.47
2022-03-01 01:03:00,,0827.7,5.00,0.00,28.7,27.8,00.0,37.9,30.4,05.3,0000.0,0001.16,0000.70,0000.47
2022-03-01 01:04:00,,0827.7,5.00,0.00,28.7,27.8,00.0,37.9,30.4,05.5,0000.0,0001.18,0000.71,0000.47
2022-03-01 01:05:00,,0827.7,5.00,0.00,28.7,27.8,00.0,37.9,30.4,05.3,0000.0,0001.22,0000.72,0000.47
2022-03-01 01:06:00,,0827.7,5.00,0.00,28.7,27.8,00.0,37.9,30.4,05.3,0000.0,0001.21,0000.73,0000.47
2022-03-01 01:07:00,,0827.8,5.00,0.00,28.7,27.8,00.0,37.9,30.3,05.3,0000.0,0001.28,0000.76,0000.47
2022-03-01 01:08:00,,0827.8,5.00,0.00,28.7,27.9,00.0,37.8,30.4,05.2,0000.0,0001.29,0000.77,0000.47
2022-03-01 01:09:00,,0827.7,4.99,0.00,28.7,27.8,00.0,37.8,30.4,05.3,0000.0,0001.38,0000.80,0000.46
2022-03-01 01:10:00,,0827.7,5.00,0.00,28.7,27.9,00.0,37.8,30.4,05.3,0000.0,0001.39,0000.80,0000.46
2022-03-01 01:11:00,,0827.7,5.00,0.00,28.6,27.8,00.0,37.8,30.3,05.3,0000.0,0001.33,0000.77,0000.45
2022-03-01 01:12:00,,0827.7,4.99,0.00,28.6,27.8,00.0,37.8,30.3,05.2,0000.0,0001.20,0000.72,0000.45
2022-03-01 01:13:00,,0827.7,5.03,0.00,28.6,27.7,00.0,37.8,30.2,05.1,0000.0,0001.21,0000.73,0000.46
2022-03-01 01:14:00,,0827.7,5.00,0.00,28.6,27.7,00.0,37.7,30.2,05.4,0000.0,0001.17,0000.72,0000.47
2022-03-01 01:15:00,,0827.7,5.00,0.00,28.6,27.7,00.0,37.7,30.2,05.3,0000.0,0001.15,0000.72,0000.48
2022-03-01 01:16:00,,0827.7,5.01,0.00,28.5,27.7,00.0,37.7,30.2,05.6,0000.0,0001.21,0000.74,0000.48
2022-03-01 01:17:00,,0827.7,5.01,0.00,28.5,27.7,00.0,37.7,30.2,05.6,0000.0,0001.23,0000.72,0000.48
2022-03-01 01:18:00,,0827.7,5.00,0.00,28.5,27.6,00.0,37.7,30.2,05.5,0000.0,0001.28,0000.72,0000.49
2022-03-01 01:19:00,,0827.7,5.00,0.00,28.5,27.6,00.0,37.7,30.1,05.4,0000.0,0001.40,0000.74,0000.49
2022-03-01 01:20:00,,0827.7,4.99,0.00,28.5,27.6,00.0,37.6,30.1,05.4,0000.0,0001.35,0000.72,0000.49
2022-03-01 01:21:00,,0827.7,5.00,0.00,28.4,27.6,00.0,37.6,30.1,05.4,0000.0,0001.27,0000.69,0000.49
2022-03-01 01:22:00,,0827.7,4.99,0.00,28.4,27.5,00.0,37.6,30.1,05.5,0000.0,0001.26,0000.70,0000.50
2022-03-01 01:23:00,,0827.7,5.00,0.00,28.4,27.5,00.0,37.6,30.0,05.5,0000.0,0001.36,0000.73,0000.51
2022-03-01 01:24:00,,0827.7,5.02,0.00,28.3,27.4,00.0,37.6,30.0,05.6,0000.0,0001.37,0000.74,0000.50
2022-03-01 01:25:00,,0827.7,4.99,0.00,28.3,27.4,00.0,37.5,30.0,05.5,0000.0,0001.40,0000.75,0000.49
2022-03-01 01:26:00,,0827.7,4.99,0.00,28.3,27.4,00.0,37.5,30.0,05.4,0000.0,0001.47,0000.77,0000.49
2022-03-01 01:27:00,,0827.7,5.01,0.00,28.3,27.4,00.0,37.5,30.0,05.5,0000.0,0001.40,0000.75,0000.50
2022-03-01 01:28:00,,0827.8,4.99,0.00,28.3,27.4,00.0,37.5,29.9,05.4,0000.0,0001.46,0000.76,0000.50
2022-03-01 01:29:00,,0827.7,5.00,0.00,28.2,27.3,00.0,37.5,29.9,05.4,0000.0,0001.42,0000.75,0000.49
2022-03-01 01:30:00,,0827.8,5.00,0.00,28.2,27.3,00.0,37.4,29.9,05.4,0000.0,0001.39,0000.77,0000.49
2022-03-01 01:31:00,,0827.8,4.99,0.00,28.2,27.3,00.0,37.4,29.9,05.4,0000.0,0001.53,0000.79,0000.49
2022-03-01 01:32:00,,0827.8,5.00,0.00,28.2,27.3,00.0,37.4,29.9,05.4,0000.0,0001.64,0000.82,0000.50
2022-03-01 01:33:00,,0827.8,5.00,0.00,28.2,27.3,00.0,37.4,29.9,05.5,0000.0,0001.66,0000.83,0000.50
2022-03-01 01:34:00,,0827.8,5.00,0.00,28.2,27.2,00.0,37.4,29.8,05.3,0000.0,0001.60,0000.81,0000.50
2022-03-01 01:35:00,,0827.7,5.00,0.00,28.1,27.2,00.0,37.3,29.8,05.3,0000.0,0001.55,0000.79,0000.50
2022-03-01 01:36:00,,0827.7,5.01,0.00,28.1,27.2,00.0,37.3,29.8,05.3,0000.0,0001.47,0000.76,0000.50
2022-03-01 01:37:00,,0827.7,5.00,0.00,28.1,27.2,00.0,37.3,29.8,05.4,0000.0,0001.49,0000.76,0000.50
2022-03-01 01:38:00,,0827.7,5.01,0.00,28.1,27.1,00.0,37.3,29.7,05.3,0000.0,0001.53,0000.77,0000.50
2022-03-01 01:39:00,,0827.7,4.99,0.00,28.0,27.1,00.0,37.3,29.7,05.4,0000.0,0001.44,0000.76,0000.50
2022-03-01 01:40:00,,0827.7,5.02,0.00,28.0,27.1,00.0,37.2,29.7,05.3,0000.0,0001.38,0000.76,0000.51
2022-03-01 01:41:00,,0827.7,5.00,0.00,28.0,27.1,00.0,37.2,29.6,05.4,0000.0,0001.27,0000.71,0000.51
2022-03-01 01:42:00,,0827.7,5.00,0.00,28.0,27.1,00.0,37.2,29.7,05.3,0000.0,0001.07,0000.68,0000.51
2022-03-01 01:43:00,,0827.7,5.00,0.00,28.0,27.1,00.0,37.2,29.6,05.4,0000.0,0001.02,0000.66,0000.50
2022-03-01 01:44:00,,0827.7,5.00,0.00,28.0,27.1,00.0,37.2,29.7,05.4,0000.0,0001.05,0000.67,0000.49
2022-03-01 01:45:00,,0827.8,5.00,0.00,28.0,27.1,00.0,37.1,29.6,05.4,0000.0,0001.08,0000.68,0000.49
2022-03-01 01:46:00,,0827.7,5.02,0.00,28.0,27.1,00.0,37.1,29.7,05.5,0000.0,0001.10,0000.68,0000.49
2022-03-01 01:47:00,,0827.7,5.00,0.00,27.9,27.1,00.0,37.1,29.6,05.5,0000.0,0001.17,0000.70,0000.49
2022-03-01 01:48:00,,0827.7,5.00,0.00,27.9,27.1,00.0,37.1,29.6,05.4,0000.0,0001.11,0000.70,0000.49
2022-03-01 01:49:00,,0827.8,4.99,0.00,27.9,27.1,00.0,37.1,29.6,05.4,0000.0,0001.05,0000.67,0000.49
2022-03-01 01:50:00,,0827.8,5.00,0.00,27.9,27.1,00.0,37.1,29.6,05.5,0000.0,0001.06,0000.68,0000.50
2022-03-01 01:51:00,,0827.9,5.00,0.00,27.9,27.1,00.0,37.1,29.6,05.5,0000.0,0001.08,0000.69,0000.51
2022-03-01 01:52:00,,0827.9,5.00,0.00,27.9,27.2,00.0,37.1,29.7,05.5,0000.0,0001.11,0000.69,0000.50
2022-03-01 01:53:00,,0827.9,5.00,0.00,28.0,27.3,00.0,37.1,29.7,05.4,0000.0,0001.91,0000.72,0000.51
2022-03-01 01:54:00,,0827.9,5.00,0.00,28.0,27.3,00.0,37.1,29.7,05.4,0000.0,0002.32,0000.73,0000.51
2022-03-01 01:55:00,,0828.0,5.00,0.00,28.0,27.4,00.0,37.1,29.8,05.5,0000.0,0002.30,0000.72,0000.52
2022-03-01 01:56:00,,0828.0,4.98,0.00,28.0,27.4,00.0,37.1,29.8,05.5,0000.0,0002.45,0000.75,0000.52
2022-03-01 01:57:00,,0828.0,5.01,0.00,28.1,27.4,00.0,37.1,29.8,05.5,0000.0,0002.58,0000.75,0000.52
2022-03-01 01:58:00,,0828.0,5.00,0.00,28.1,27.4,00.0,37.1,29.9,05.5,0000.0,0002.53,0000.73,0000.52
2022-03-01 01:59:00,,0828.0,5.01,0.00,28.1,27.5,00.0,37.1,29.9,05.4,0000.0,0002.57,0000.73,0000.52
